Weather History for Peru, IN

Change the Weather History Date:

Sunday, October 30, 2011

  Actual Average Record
Temperature  
Mean Temperature 42 °F -  
Max Temperature 56 °F 55 °F 73 °F (2003)
Min Temperature 28 °F 39 °F 27 °F (2008)
Degree Days  
Heating Degree Days 24    
Moisture  
Dew Point 29 °F    
Average Humidity 64    
Maximum Humidity 100    
Minimum Humidity 26    
Precipitation  
Precipitation 0.00 in - - ()
Sea Level Pressure  
Sea Level Pressure 30.13 in    
Wind  
Wind Speed 7 mph (South)    
Max Wind Speed 21 mph    
Max Gust Speed 31 mph    
Visibility 10 miles    
Events      
Averages and records for this station are not official NWS values.
T = Trace of Precipitation, MM = Missing Value Source: NWS Daily Summary

Daily Weather History Graph

Daily Weather History Graph

Search for Another Location

Airport:

Trip Planner

Search our weather history database for the weather conditions in past years. The results will help you decide how hot, cold, wet, or windy it might be!

Date:

Astronomy

Oct. 30, 2011 Rise Set
Actual Time 8:12 AM EDT 6:43 PM EDT
Civil Twilight 7:43 AM EDT 7:12 PM EDT
Nautical Twilight 7:11 AM EDT 7:44 PM EDT
Astronomical Twilight 6:39 AM EDT 8:15 PM EDT
Moon 12:31 PM EDT (10/30) 10:11 PM EDT (10/30)
Length of Visible Light 11h 28m
Length of Day
10h 31m
Waxing Crescent, 20% of the Moon is Illuminated
Oct 30
Waxing Crescent
Nov 2
First Quarter
Nov 10
Full
Nov 18
Last Quarter
Nov 25
New

Hourly Weather History & Observations

Time (EDT) Temp. Windchill Dew Point Humidity Pressure Visibility Wind Dir Wind Speed Gust Speed Precip Events Conditions
12:55 AM 32.7 °F - 32.5 °F 99% 30.15 in 10.0 mi Calm Calm - N/A   Clear
1:55 AM 31.8 °F - 31.5 °F 99% 30.15 in 10.0 mi Calm Calm - N/A   Clear
2:55 AM 30.9 °F - 30.7 °F 99% 30.16 in 10.0 mi Calm Calm - N/A   Clear
3:55 AM 29.5 °F 25.9 °F 29.5 °F 100% 30.17 in 10.0 mi SE 3.5 mph - N/A   Clear
4:55 AM 30.7 °F 27.3 °F 30.4 °F 99% 30.17 in 10.0 mi SE 3.5 mph - N/A   Clear
5:55 AM 29.8 °F 26.3 °F 29.7 °F 99% 30.17 in 10.0 mi SE 3.5 mph - N/A   Clear
6:55 AM 28.9 °F 21.1 °F 28.6 °F 99% 30.19 in 10.0 mi SSE 8.1 mph - N/A   Clear
7:55 AM 30.6 °F 24.7 °F 30.4 °F 99% 30.20 in 10.0 mi SSE 5.8 mph - N/A   Overcast
8:55 AM 34.5 °F 27.3 °F 34.2 °F 99% 30.20 in 10.0 mi SSE 9.2 mph - N/A   Clear
9:55 AM 37.9 °F 32.7 °F 37.2 °F 97% 30.21 in 10.0 mi SSE 6.9 mph - N/A   Clear
10:30 AM 39.2 °F 33.0 °F 37.4 °F 93% 30.18 in 10.0 mi South 9.2 mph - N/A   Clear
10:55 AM 41.5 °F 35.9 °F 37.8 °F 86% 30.20 in 10.0 mi SSE 9.2 mph - N/A   Scattered Clouds
11:55 AM 47.7 °F - 32.2 °F 55% 30.18 in 10.0 mi South 11.5 mph - N/A   Overcast
12:55 PM 51.6 °F - 24.4 °F 35% 30.16 in 10.0 mi South 17.3 mph 23.0 mph N/A   Mostly Cloudy
1:55 PM 53.8 °F - 21.2 °F 28% 30.13 in 10.0 mi South 13.8 mph - N/A   Mostly Cloudy
2:55 PM 55.0 °F - 20.1 °F 26% 30.10 in 10.0 mi SSW 20.7 mph 27.6 mph N/A   Scattered Clouds
3:55 PM 55.9 °F - 21.2 °F 26% 30.07 in 10.0 mi South 17.3 mph - N/A   Mostly Cloudy
4:55 PM 55.6 °F - 21.6 °F 27% 30.06 in 10.0 mi South 15.0 mph - N/A   Overcast
5:55 PM 53.6 °F - 25.7 °F 34% 30.06 in 10.0 mi South 10.4 mph 19.6 mph N/A   Clear
6:55 PM 52.2 °F - 26.6 °F 37% 30.08 in 10.0 mi South 8.1 mph - N/A   Scattered Clouds
7:08 PM 51.8 °F - 28.4 °F 41% 30.08 in 10.0 mi SW 20.7 mph 31.1 mph N/A   Light Drizzle
7:17 PM 53.6 °F - 26.6 °F 35% 30.08 in 10.0 mi SSW 10.4 mph 31.1 mph N/A   Overcast
7:55 PM 52.5 °F - 27.0 °F 37% 30.08 in 10.0 mi South 9.2 mph - 0.00 in   Overcast
8:55 PM 52.0 °F - 29.1 °F 41% 30.09 in 10.0 mi SSW 8.1 mph - N/A   Mostly Cloudy
9:55 PM 51.4 °F - 29.5 °F 43% 30.08 in 10.0 mi SW 12.7 mph - N/A   Partly Cloudy
10:55 PM 49.5 °F - 34.0 °F 55% 30.07 in 10.0 mi South 6.9 mph - N/A   Overcast
11:55 PM 50.4 °F - 31.3 °F 48% 30.04 in 10.0 mi SSE 10.4 mph - N/A   Mostly Cloudy